Weather History for KDLS - May, 2009

Change the Weather History Date:

Wednesday, May 13, 2009

  Actual Average (KTTD) Record (KTTD)
Temperature  
Mean Temperature 46 °F 57 °F  
Max Temperature 55 °F 68 °F 92 °F (1973)
Min Temperature 37 °F 46 °F 34 °F (1985)
Degree Days  
Heating Degree Days 19 9  
Month to date heating degree days 129  
Cooling Degree Days 0 0  
Month to date cooling degree days 0  
Moisture  
Dew Point 38 °F    
Average Humidity 72    
Maximum Humidity 93    
Minimum Humidity 47    
Precipitation  
Precipitation 0.15 in 0.09 in 0.63 in (1996)
Month to date precipitation 1.28  
Year to date precipitation 21.04  
Sea Level Pressure  
Sea Level Pressure 30.04 in    
Wind  
Wind Speed 7 mph (NW)    
Max Wind Speed 13 mph    
Max Gust Speed -    
Visibility 10 miles    
Events Rain    
T = Trace of Precipitation, MM = Missing Value Source: NWS Daily Summary

Daily Weather History Graph

Daily Weather History Graph

Search for Another Location

Airport or City:

Trip Planner

Search our weather history database for the weather conditions in past years. The results will help you decide how hot, cold, wet, or windy it might be!

Date:

Astronomy

May. 13, 2009 Rise Set
Actual Time 5:35 AM PDT 8:27 PM PDT
Civil Twilight 5:01 AM PDT 9:01 PM PDT
Nautical Twilight 4:17 AM PDT 9:45 PM PDT
Astronomical Twilight 3:25 AM PDT 10:37 PM PDT
Moon 12:14 AM PDT (5/13) 8:45 AM PDT (5/13)
Length of Visible Light 16h 00m
Length of Day
14h 51m
Waning Gibbous, 81% of the Moon is Illuminated
May 13
Waning Gibbous
May 17
Last Quarter
May 24
New
May 30
First Quarter
Jun 7
Full

Hourly Weather History & Observations

Time (PDT) Temp. Windchill Dew Point Humidity Pressure Visibility Wind Dir Wind Speed Gust Speed Precip Events Conditions
12:53 AM 46.0 °F 41.4 °F 34.0 °F 63% 30.23 in 10.0 mi WNW 9.2 mph - N/A   Scattered Clouds
1:53 AM 46.0 °F 40.2 °F 36.0 °F 68% 30.21 in 10.0 mi NNW 12.7 mph - N/A   Clear
2:53 AM 44.1 °F 41.5 °F 33.1 °F 65% 30.22 in 10.0 mi WSW 4.6 mph - N/A   Clear
3:53 AM 39.9 °F 34.5 °F 32.0 °F 73% 30.22 in 10.0 mi SW 8.1 mph - N/A   Clear
4:53 AM 37.9 °F - 32.0 °F 79% 30.22 in 10.0 mi Calm Calm - N/A   Clear
5:53 AM 37.0 °F 32.4 °F 30.9 °F 79% 30.21 in 10.0 mi East 5.8 mph - N/A   Clear
6:53 AM 39.0 °F 34.8 °F 32.0 °F 76% 30.22 in 10.0 mi East 5.8 mph - N/A   Clear
7:53 AM 43.0 °F - 33.1 °F 68% 30.20 in 10.0 mi Calm Calm - N/A   Clear
8:53 AM 46.0 °F - 35.1 °F 66% 30.16 in 10.0 mi Calm Calm - N/A   Clear
9:53 AM 52.0 °F - 35.1 °F 53% 30.14 in 10.0 mi Calm Calm - N/A   Clear
10:53 AM 52.0 °F - 35.1 °F 53% 30.10 in 10.0 mi Variable 3.5 mph - N/A   Clear
11:53 AM 54.0 °F - 35.1 °F 49% 30.09 in 10.0 mi West 4.6 mph - N/A   Clear
12:53 PM 54.0 °F - 35.1 °F 49% 30.06 in 10.0 mi North 4.6 mph - N/A   Clear
1:53 PM 55.9 °F - 36.0 °F 47% 30.04 in 10.0 mi NNW 8.1 mph - N/A   Clear
2:53 PM 54.0 °F - 37.0 °F 53% 30.03 in 10.0 mi NW 11.5 mph - 0.00 in Rain Light Rain
3:53 PM 52.0 °F - 41.0 °F 66% 30.01 in 10.0 mi NW 12.7 mph - 0.00 in Rain Light Rain
4:53 PM 52.0 °F - 42.1 °F 69% 29.98 in 10.0 mi NW 5.8 mph - 0.01 in Rain Light Rain
5:53 PM 51.1 °F - 44.1 °F 77% 29.94 in 10.0 mi NNW 5.8 mph - 0.00 in Rain Light Rain
6:53 PM 51.1 °F - 44.1 °F 77% 29.90 in 10.0 mi NNW 6.9 mph - 0.00 in Rain Light Rain
7:53 PM 48.9 °F - 45.0 °F 86% 29.88 in 10.0 mi NNW 10.4 mph - 0.00 in Rain Light Rain
8:53 PM 48.0 °F - 45.0 °F 89% 29.86 in 8.0 mi NW 5.8 mph - 0.03 in Rain Light Rain
9:53 PM 48.0 °F - 45.0 °F 89% 29.85 in 10.0 mi NNW 6.9 mph - 0.01 in Rain Light Rain
10:46 PM 46.4 °F 43.5 °F 44.6 °F 93% 29.85 in 7.0 mi NNW 5.8 mph - 0.03 in Rain Light Rain
10:53 PM 46.9 °F - 45.0 °F 93% 29.84 in 6.0 mi NNW 8.1 mph - 0.06 in Rain Rain
11:16 PM 46.4 °F 45.2 °F 44.6 °F 93% 29.84 in 8.0 mi NNW 3.5 mph - 0.03 in Rain Light Rain
11:53 PM 48.0 °F - 45.0 °F 89% 29.84 in 10.0 mi NNW 5.8 mph - 0.04 in Rain Light Rain